Yankton, SD

9:08 PM CST on December 09, 2016 (GMT -0600)
Gurney Municipal

Weather History for KYKN - February, 2014

Change the Weather History Date:

Friday, February 21, 2014

  Actual Average Record
Temperature  
Mean Temperature 28 °F -  
Max Temperature 39 °F 36 °F 68 °F (1981)
Min Temperature 17 °F 17 °F -12 °F (1968)
Degree Days  
Heating Degree Days 37    
Moisture  
Dew Point 15 °F    
Average Humidity 63    
Maximum Humidity 80    
Minimum Humidity 44    
Precipitation  
Precipitation 0.00 in - - ()
Sea Level Pressure  
Sea Level Pressure 29.78 in    
Wind  
Wind Speed 12 mph (WNW)    
Max Wind Speed 20 mph    
Max Gust Speed 25 mph    
Visibility 10 miles    
Events      
Averages and records for this station are not official NWS values.
T = Trace of Precipitation, MM = Missing Value Source: NWS Daily Summary

Daily Weather History Graph

Daily Weather History Graph

Search for Another Location

Airport or City:

Trip Planner

Search our weather history database for the weather conditions in past years. The results will help you decide how hot, cold, wet, or windy it might be!

Date:

Astronomy

Feb. 21, 2014 Rise Set
Actual Time 7:18 AM CST 6:08 PM CST
Civil Twilight 6:49 AM CST 6:37 PM CST
Nautical Twilight 6:16 AM CST 7:10 PM CST
Astronomical Twilight 5:43 AM CST 7:43 PM CST
Moon 12:13 AM CST (2/21) 10:33 AM CST (2/21)
Length of Visible Light 11h 48m
Length of Day
10h 50m
Waning Gibbous, 60% of the Moon is Illuminated
Feb 21
Waning Gibbous
Feb 22
Last Quarter
Mar 1
New
Mar 8
First Quarter
Mar 16
Full

Hourly Weather History & Observations

Time (CST) Temp. Windchill Dew Point Humidity Pressure Visibility Wind Dir Wind Speed Gust Speed Precip Events Conditions
12:15 AM 19.4 °F 6.0 °F 14.0 °F 80% 29.73 in 10.0 mi WNW 13.8 mph - N/A   Clear
12:35 AM 19.4 °F 4.5 °F 14.0 °F 80% 29.74 in 10.0 mi West 17.3 mph - N/A   Clear
12:55 AM 19.4 °F 5.0 °F 14.0 °F 80% 29.73 in 10.0 mi WNW 16.1 mph - N/A   Clear
1:15 AM 19.4 °F 3.6 °F 12.2 °F 74% 29.73 in 10.0 mi West 19.6 mph 23.0 mph N/A   Clear
1:35 AM 19.4 °F 4.5 °F 12.2 °F 74% 29.74 in 10.0 mi WNW 17.3 mph 25.3 mph N/A   Clear
1:55 AM 19.4 °F 5.5 °F 12.2 °F 74% 29.73 in 10.0 mi West 15.0 mph - N/A   Clear
2:15 AM 19.4 °F 6.0 °F 10.4 °F 68% 29.73 in 10.0 mi WNW 13.8 mph - N/A   Clear
2:35 AM 17.6 °F 5.0 °F 12.2 °F 79% 29.73 in 10.0 mi West 11.5 mph - N/A   Clear
2:55 AM 17.6 °F 6.4 °F 10.4 °F 73% 29.74 in 10.0 mi WSW 9.2 mph - N/A   Clear
3:15 AM 17.6 °F 3.7 °F 10.4 °F 73% 29.74 in 10.0 mi West 13.8 mph - N/A   Clear
3:35 AM 19.4 °F 4.5 °F 12.2 °F 74% 29.74 in 10.0 mi West 17.3 mph - N/A   Clear
3:55 AM 19.4 °F 5.5 °F 10.4 °F 68% 29.74 in 10.0 mi West 15.0 mph - N/A   Clear
4:15 AM 19.4 °F 7.9 °F 12.2 °F 74% 29.75 in 10.0 mi West 10.4 mph - N/A   Clear
4:35 AM 19.4 °F 7.2 °F 12.2 °F 74% 29.75 in 10.0 mi West 11.5 mph - N/A   Clear
4:55 AM 19.4 °F 6.6 °F 12.2 °F 74% 29.75 in 10.0 mi West 12.7 mph - N/A   Clear
5:15 AM 19.4 °F 6.0 °F 10.4 °F 68% 29.75 in 10.0 mi West 13.8 mph - N/A   Clear
5:35 AM 19.4 °F 6.6 °F 8.6 °F 63% 29.75 in 10.0 mi WNW 12.7 mph - N/A   Clear
5:55 AM 19.4 °F 8.6 °F 10.4 °F 68% 29.74 in 10.0 mi NW 9.2 mph - N/A   Clear
6:15 AM 17.6 °F 9.3 °F 12.2 °F 79% 29.75 in 10.0 mi WNW 5.8 mph - N/A   Clear
6:35 AM 17.6 °F 10.7 °F 10.4 °F 73% 29.74 in 10.0 mi West 4.6 mph - N/A   Clear
6:55 AM 17.6 °F 8.2 °F 12.2 °F 79% 29.74 in 10.0 mi West 6.9 mph - N/A   Clear
7:15 AM 17.6 °F 6.4 °F 10.4 °F 73% 29.75 in 10.0 mi WSW 9.2 mph - N/A   Clear
7:35 AM 17.6 °F 7.3 °F 10.4 °F 73% 29.76 in 10.0 mi WSW 8.1 mph - N/A   Clear
7:55 AM 19.4 °F 9.5 °F 12.2 °F 74% 29.77 in 10.0 mi WSW 8.1 mph - N/A   Clear
8:15 AM 21.2 °F 11.7 °F 12.2 °F 68% 29.75 in 10.0 mi West 8.1 mph - N/A   Partly Cloudy
8:35 AM 21.2 °F 12.6 °F 12.2 °F 68% 29.76 in 10.0 mi WSW 6.9 mph - N/A   Mostly Cloudy
8:55 AM 24.8 °F 15.3 °F 15.8 °F 69% 29.76 in 10.0 mi WSW 9.2 mph - N/A   Mostly Cloudy
9:15 AM 24.8 °F 14.0 °F 10.4 °F 54% 29.77 in 10.0 mi West 11.5 mph - N/A   Scattered Clouds
9:35 AM 24.8 °F 14.6 °F 10.4 °F 54% 29.77 in 10.0 mi West 10.4 mph - N/A   Partly Cloudy
9:55 AM 26.6 °F 17.5 °F 10.4 °F 51% 29.76 in 10.0 mi WNW 9.2 mph - N/A   Clear
10:15 AM 26.6 °F 16.2 °F 12.2 °F 55% 29.76 in 10.0 mi WNW 11.5 mph - N/A   Clear
10:35 AM 26.6 °F 15.7 °F 10.4 °F 51% 29.76 in 10.0 mi WNW 12.7 mph 16.1 mph N/A   Clear
10:55 AM 28.4 °F 21.2 °F 12.2 °F 51% 29.77 in 10.0 mi WNW 6.9 mph - N/A   Mostly Cloudy
11:15 AM 28.4 °F 19.7 °F 12.2 °F 51% 29.76 in 10.0 mi WNW 9.2 mph - N/A   Mostly Cloudy
11:35 AM 30.2 °F 21.9 °F 14.0 °F 51% 29.76 in 10.0 mi NW 9.2 mph - N/A   Mostly Cloudy
11:55 AM 30.2 °F 21.3 °F 14.0 °F 51% 29.76 in 10.0 mi West 10.4 mph - N/A   Overcast
12:15 PM 32.0 °F 23.0 °F 14.0 °F 48% 29.76 in 10.0 mi WNW 11.5 mph - N/A   Mostly Cloudy
12:35 PM 32.0 °F 23.0 °F 12.2 °F 44% 29.76 in 10.0 mi WNW 11.5 mph 16.1 mph N/A   Overcast
12:55 PM 33.8 °F 25.3 °F 14.0 °F 44% 29.76 in 10.0 mi WNW 11.5 mph 17.3 mph N/A   Overcast
1:15 PM 33.8 °F 25.8 °F 15.8 °F 48% 29.76 in 10.0 mi WNW 10.4 mph 17.3 mph N/A   Mostly Cloudy
1:35 PM 35.6 °F 28.0 °F 17.6 °F 48% 29.75 in 10.0 mi West 10.4 mph 16.1 mph N/A   Clear
1:55 PM 35.6 °F 26.6 °F 17.6 °F 48% 29.75 in 10.0 mi West 13.8 mph - N/A   Clear
2:15 PM 35.6 °F 28.6 °F 17.6 °F 48% 29.75 in 10.0 mi WNW 9.2 mph - N/A   Clear
2:35 PM 37.4 °F 29.8 °F 19.4 °F 48% 29.75 in 10.0 mi West 11.5 mph - N/A   Clear
2:55 PM 37.4 °F 28.9 °F 19.4 °F 48% 29.75 in 10.0 mi West 13.8 mph - N/A   Clear
3:15 PM 37.4 °F 29.3 °F 19.4 °F 48% 29.76 in 10.0 mi West 12.7 mph - N/A   Clear
3:35 PM 37.4 °F 28.9 °F 21.2 °F 52% 29.77 in 10.0 mi West 13.8 mph 19.6 mph N/A   Scattered Clouds
3:55 PM 39.2 °F 32.0 °F 21.2 °F 49% 29.77 in 10.0 mi WNW 11.5 mph 20.7 mph N/A   Scattered Clouds
4:15 PM 37.4 °F 28.5 °F 21.2 °F 52% 29.77 in 10.0 mi WNW 15.0 mph 21.9 mph N/A   Partly Cloudy
4:35 PM 37.4 °F 29.8 °F 21.2 °F 52% 29.78 in 10.0 mi WNW 11.5 mph - N/A   Clear
4:55 PM 37.4 °F 29.3 °F 19.4 °F 48% 29.78 in 10.0 mi NW 12.7 mph - N/A   Partly Cloudy
5:15 PM 37.4 °F 30.3 °F 19.4 °F 48% 29.79 in 10.0 mi NW 10.4 mph - N/A   Clear
5:35 PM 35.6 °F 27.1 °F 17.6 °F 48% 29.80 in 10.0 mi WNW 12.7 mph - N/A   Clear
5:55 PM 33.8 °F 25.3 °F 17.6 °F 52% 29.80 in 10.0 mi WNW 11.5 mph - N/A   Clear
6:15 PM 32.0 °F 24.8 °F 17.6 °F 55% 29.81 in 10.0 mi WNW 8.1 mph - N/A   Clear
6:35 PM 30.2 °F 22.6 °F 15.8 °F 55% 29.81 in 10.0 mi WNW 8.1 mph - N/A   Clear
6:55 PM 30.2 °F 24.3 °F 17.6 °F 60% 29.82 in 10.0 mi WNW 5.8 mph - N/A   Clear
7:15 PM 30.2 °F 23.4 °F 17.6 °F 60% 29.82 in 10.0 mi NW 6.9 mph - N/A   Clear
7:35 PM 28.4 °F 22.2 °F 17.6 °F 64% 29.83 in 10.0 mi WNW 5.8 mph - N/A   Clear
7:55 PM 30.2 °F 25.4 °F 17.6 °F 60% 29.83 in 10.0 mi WNW 4.6 mph - N/A   Clear
8:15 PM 28.4 °F 23.3 °F 17.6 °F 64% 29.83 in 10.0 mi West 4.6 mph - N/A   Clear
8:35 PM 26.6 °F 19.1 °F 15.8 °F 64% 29.83 in 10.0 mi NW 6.9 mph - N/A   Clear
8:55 PM 21.2 °F 13.6 °F 15.8 °F 80% 29.84 in 10.0 mi NNW 5.8 mph - N/A   Clear
9:15 PM 24.8 °F 19.1 °F 15.8 °F 69% 29.86 in 10.0 mi WSW 4.6 mph - N/A   Clear
9:35 PM 24.8 °F 20.5 °F 17.6 °F 74% 29.87 in 10.0 mi West 3.5 mph - N/A   Mostly Cloudy
9:55 PM 24.8 °F 19.1 °F 19.4 °F 80% 29.86 in 10.0 mi NW 4.6 mph - N/A   Overcast
10:15 PM 24.8 °F 17.9 °F 17.6 °F 74% 29.86 in 10.0 mi NW 5.8 mph - N/A   Mostly Cloudy
10:35 PM 24.8 °F 16.9 °F 17.6 °F 74% 29.87 in 10.0 mi NW 6.9 mph - N/A   Scattered Clouds
10:55 PM 24.8 °F 17.9 °F 17.6 °F 74% 29.88 in 10.0 mi NW 5.8 mph - N/A   Clear
11:15 PM 23.0 °F 13.9 °F 17.6 °F 80% 29.88 in 10.0 mi NNW 8.1 mph - N/A   Scattered Clouds
11:35 PM 24.8 °F 17.9 °F 17.6 °F 74% 29.88 in 10.0 mi NNW 5.8 mph - N/A   Mostly Cloudy
11:55 PM 24.8 °F 16.9 °F 15.8 °F 69% 29.89 in 10.0 mi NNW 6.9 mph - N/A   Mostly Cloudy